Погода в Джемикенте

Россия / Республика Дагестан     42°14′06″N   48°02′25″E
темп.,
°C
ветер,
м/с
пор.,
м/с
влажн.,
%
обл.,
%
осадки,
мм/ч
давл.,
гПа
погр.,
м
4 июля, пн
пн400:00+19юз335126 0.0 101338
03:00+18зюз33517 0.0 101340
06:00+22зюз24402 0.0 1014175
09:00+28с562733 0.0 10142509
12:00+26ссв463296 0.0 10141134
15:00+26св533338 0.0 1014942
18:00+24в32423 0.0 1014632
21:00+19ююз22580 0.0 101562
5 июля, вт
вт500:00+19юз22500 0.0 101431
03:00+19зюз33450 0.0 101338
06:00+23зюз34350 0.0 1013115
09:00+30св33210 0.0 10132509
12:00+31св65227 0.0 10122036
15:00+32в342187 0.0 10112331
18:00+24ссв346023 0.0 1014575
21:00+20ссз118111 0.0 101583
6 июля, ср
ср600:00+20юз237033 0.0 101571
03:00+19юз22550 0.0 101427
06:00+23юз11410 0.0 1015124
09:00+28всв42340 0.0 10141154
12:00+28всв64366 0.0 10151350
15:00+28в54353 0.0 10151284
18:00+25в44412 0.0 1015736
21:00+20в02630 0.0 1017131
7 июля, чт
чт700:00+19з11710 0.0 101649
03:00+18ююз128014 0.0 1016116
06:00+20ююв236411 0.0 1016350
09:00+25вюв56508 0.0 10151298
12:00+26в76429 0.0 10151287
15:00+25в76420 0.0 10141174
18:00+23вюв565279 0.1 1014616
21:00+19ю137010 0.1 1014126
8 июля, пт
пт800:00+18юз11693 0.0 101329
03:00+18ююз227012 0.0 101323
06:00+21ююз115578 0.0 1013144
09:00+28в562765 0.0 10121094
12:00+29в782893 0.0 10121063
15:00+28в663497 0.0 1011990
18:00+26юв454197 0.0 1012587
21:00+22ю225397 0.0 101265